Flag for China Weather past 2 weeks in Nanjing, Jiangsu, China

Now
84 °F

Clear.


Feels Like: 96 °F
Forecast: 81 / 97 °F
Wind: 1 mph from North

Location: Nanjing

Current Time: Aug 1, 2015 at 8:39:39 PM

Latest Report: Aug 1, 2015 at 8:00 PM


Visibility: 10 mi

Pressure: 29.74 "Hg

Humidity: 84%

Dew point: 79 °F

Location of NanjingLocation

Historic Weather in Nanjing — Graph

°F

Nanjing temperature yesterday

Maximum temperature yesterday: 95 °F (at 12:00 PM)
Minimum temperature yesterday: 79 °F (at 3:00 AM)
Average temperature yesterday: 87 °F

Past Weeks' High & Low Weather Summary

 TemperatureHumidityPressure
High97 °F (Aug 1, 1:00 PM)100% (Jul 17, 7:00 PM)29.80 "Hg (Jul 17, 7:00 PM)
Low72 °F (Jul 19, 9:00 PM)47% (Jul 31, 4:00 PM)29.56 "Hg (Jul 24, 2:00 PM)
Average83 °F85%29.69 "Hg
* Reported Jul 17 7:00 PM — Aug 1 7:00 PM, Nanjing, Weather by CustomWeather, © 2015

Note: Actual official high and low records may vary slightly from our data, if they occured in-between our weather recording intervals... More about our weather records

Advertising

Nanjing weather history for previous 24 hours

 ConditionsComfort  
Time TempWeatherWind HumidityBarometerVisibility
7:00 PM
Sat, Aug 1
88 °FSunny.1 mph66%29.74 "Hg10 mi
6:00 PM93 °FSunny.3 mph56%29.74 "Hg10 mi
5:00 PM95 °FSunny.8 mph50%29.71 "Hg10 mi
4:00 PM95 °FPassing clouds.8 mph53%29.74 "HgN/A
3:00 PM95 °FScattered clouds.10 mph53%29.74 "HgN/A
2:00 PM93 °FScattered clouds.10 mph56%29.77 "HgN/A
1:00 PM97 °FScattered clouds.10 mph53%29.77 "HgN/A
12:00 PM95 °FPartly sunny.8 mph56%29.80 "HgN/A
11:00 AM91 °FSunny.6 mph63%29.80 "Hg10 mi
10:00 AM90 °FPassing clouds.10 mph67%29.80 "HgN/A
9:00 AM90 °FSunny.8 mph67%29.77 "Hg10 mi
8:00 AM88 °FPassing clouds.3 mph70%29.80 "HgN/A
7:00 AM82 °FSunny.1 mph89%29.80 "Hg10 mi
6:00 AM82 °FSunny.1 mph89%29.77 "Hg10 mi
5:00 AM81 °FClear.1 mph94%29.74 "Hg10 mi
4:00 AM82 °FClear.1 mph89%29.74 "Hg10 mi
3:00 AM82 °FClear.3 mph89%29.74 "Hg10 mi
2:00 AM81 °FClear.3 mph94%29.74 "Hg10 mi
1:00 AM82 °FClear.1 mph89%29.74 "Hg10 mi
12:00 AM84 °FClear.3 mph84%29.74 "Hg10 mi
11:00 PM
Fri, Jul 31
82 °FClear.1 mph89%29.77 "Hg10 mi
10:00 PM84 °FClear.3 mph84%29.77 "Hg10 mi
9:00 PM84 °FClear.1 mph89%29.74 "Hg10 mi
8:00 PM86 °FClear.1 mph70%29.74 "Hg10 mi
Weather by CustomWeather, © 2015

See weather overviewHow to use our weather pages